• In Belarus
  • List of Countries
  • For 7 days
  • Water Temperature
  • Satellite Maps
  • Weather Map
  • Weather Widgets
  • user-avatar
    Login

    Hourly Weather Kabul

    Today, 19 July, Thursday

    Time Temperature Precipitation Wind Pressure Humidity
    00:00 +26°C° 0 mm 1 mps 608 mmHg 46%
    01:00 +25°C° 0 mm 1 mps 608 mmHg 48%
    02:00 +25°C° 0 mm 1 mps 607 mmHg 50%
    03:00 +24°C° 0 mm 1 mps 607 mmHg 52%
    04:00 +24°C° 0 mm 1 mps 607 mmHg 55%
    05:00 +23°C° 0 mm 1 mps 607 mmHg 58%
    06:00 +24°C° 0 mm 1 mps 607 mmHg 52%
    07:00 +25°C° 0 mm 1 mps 608 mmHg 45%
    08:00 +27°C° 0 mm 1 mps 609 mmHg 39%
    09:00 +28°C° 0 mm 1 mps 609 mmHg 34%
    10:00 +29°C° 0 mm 1 mps 609 mmHg 28%
    11:00 +31°C° 0 mm 2 mps 609 mmHg 23%
    12:00 +32°C° 0 mm 2 mps 609 mmHg 21%
    13:00 +34°C° 0 mm 2 mps 609 mmHg 19%
    14:00 +35°C° 0 mm 2 mps 609 mmHg 17%
    15:00 +35°C° 0 mm 2 mps 609 mmHg 16%
    16:00 +35°C° 0 mm 3 mps 609 mmHg 16%
    17:00 +35°C° 0 mm 3 mps 609 mmHg 15%
    18:00 +34°C° 0 mm 3 mps 608 mmHg 17%
    19:00 +32°C° 0 mm 2 mps 608 mmHg 18%
    20:00 +30°C° 0 mm 2 mps 608 mmHg 20%
    21:00 +29°C° 0 mm 2 mps 608 mmHg 22%
    22:00 +28°C° 0 mm 2 mps 608 mmHg 24%
    23:00 +27°C° 0 mm 2 mps 608 mmHg 26%

    Tomorrow, 20 July, Friday

    Time Temperature Precipitation Wind Pressure Humidity
    00:00 +27°C° 0 mm 1 mps 607 mmHg 28%
    01:00 +26°C° 0 mm 1 mps 607 mmHg 30%
    02:00 +25°C° 0 mm 1 mps 606 mmHg 32%
    03:00 +25°C° 0 mm 1 mps 606 mmHg 33%
    04:00 +24°C° 0 mm 1 mps 606 mmHg 34%
    05:00 +24°C° 0 mm 1 mps 606 mmHg 35%
    06:00 +25°C° 0 mm 1 mps 606 mmHg 31%
    07:00 +26°C° 0 mm 1 mps 607 mmHg 27%
    08:00 +28°C° 0 mm 1 mps 608 mmHg 23%
    09:00 +29°C° 0 mm 1 mps 608 mmHg 20%
    10:00 +30°C° 0 mm 1 mps 608 mmHg 18%
    11:00 +32°C° 0 mm 2 mps 609 mmHg 15%
    12:00 +34°C° 0 mm 2 mps 609 mmHg 14%
    13:00 +34°C° 0 mm 2 mps 609 mmHg 13%
    14:00 +35°C° 0 mm 2 mps 609 mmHg 12%
    15:00 +35°C° 0 mm 3 mps 609 mmHg 12%
    16:00 +36°C° 0 mm 3 mps 608 mmHg 12%
    17:00 +36°C° 0 mm 3 mps 608 mmHg 11%
    18:00 +34°C° 0 mm 3 mps 608 mmHg 13%
    19:00 +33°C° 0 mm 3 mps 608 mmHg 15%
    20:00 +31°C° 0 mm 2 mps 608 mmHg 17%
    21:00 +30°C° 0 mm 2 mps 608 mmHg 19%
    22:00 +29°C° 0 mm 2 mps 607 mmHg 21%
    23:00 +28°C° 0 mm 1 mps 607 mmHg 24%

    Day after tomorrow, 21 July, Saturday

    Time Temperature Precipitation Wind Pressure Humidity
    00:00 +27°C° 0 mm 1 mps 607 mmHg 25%
    01:00 +26°C° 0 mm 1 mps 607 mmHg 27%
    02:00 +25°C° 0 mm 1 mps 606 mmHg 28%
    03:00 +25°C° 0 mm 1 mps 606 mmHg 29%
    04:00 +24°C° 0 mm 1 mps 606 mmHg 29%
    05:00 +24°C° 0 mm 1 mps 606 mmHg 30%
    06:00 +25°C° 0 mm 1 mps 607 mmHg 27%
    07:00 +27°C° 0 mm 1 mps 607 mmHg 24%
    08:00 +26°C° 0 mm 0 mps 608 mmHg 21%
    09:00 +29°C° 0 mm 1 mps 609 mmHg 19%
    10:00 +31°C° 0 mm 1 mps 609 mmHg 17%
    11:00 +32°C° 0 mm 1 mps 609 mmHg 16%
    12:00 +34°C° 0 mm 2 mps 609 mmHg 15%
    13:00 +35°C° 0 mm 2 mps 609 mmHg 14%
    14:00 +36°C° 0 mm 2 mps 609 mmHg 13%
    15:00 +36°C° 0 mm 2 mps 609 mmHg 12%
    16:00 +36°C° 0 mm 2 mps 609 mmHg 12%
    17:00 +36°C° 0 mm 3 mps 609 mmHg 12%
    18:00 +35°C° 0 mm 2 mps 608 mmHg 13%
    19:00 +34°C° 0 mm 2 mps 608 mmHg 15%
    20:00 +31°C° 0 mm 2 mps 608 mmHg 17%
    21:00 +30°C° 0 mm 2 mps 608 mmHg 19%
    22:00 +30°C° 0 mm 2 mps 608 mmHg 21%
    23:00 +29°C° 0 mm 1 mps 608 mmHg 23%

    22 July, Sunday

    Time Temperature Precipitation Wind Pressure Humidity
    00:00 +28°C° 0 mm 1 mps 607 mmHg 24%
    01:00 +27°C° 0 mm 1 mps 607 mmHg 26%
    02:00 +26°C° 0 mm 1 mps 606 mmHg 28%
    03:00 +26°C° 0 mm 1 mps 606 mmHg 27%
    04:00 +25°C° 0 mm 1 mps 606 mmHg 27%
    05:00 +24°C° 0 mm 2 mps 605 mmHg 27%
    06:00 +26°C° 0 mm 1 mps 606 mmHg 23%
    07:00 +27°C° 0 mm 1 mps 607 mmHg 20%
    08:00 +29°C° 0 mm 1 mps 607 mmHg 17%
    09:00 +30°C° 0 mm 1 mps 608 mmHg 14%
    10:00 +32°C° 0 mm 2 mps 608 mmHg 12%
    11:00 +34°C° 0 mm 2 mps 608 mmHg 10%
    12:00 +35°C° 0 mm 2 mps 608 mmHg 9%
    13:00 +36°C° 0 mm 2 mps 608 mmHg 8%
    14:00 +37°C° 0 mm 2 mps 608 mmHg 8%
    15:00 +37°C° 0 mm 3 mps 608 mmHg 8%
    16:00 +37°C° 0 mm 3 mps 608 mmHg 8%
    17:00 +37°C° 0 mm 3 mps 608 mmHg 8%
    18:00 +36°C° 0 mm 3 mps 607 mmHg 10%
    19:00 +34°C° 0 mm 3 mps 607 mmHg 12%
    20:00 +33°C° 0 mm 3 mps 607 mmHg 14%
    21:00 +31°C° 0 mm 2 mps 607 mmHg 17%
    22:00 +29°C° 0 mm 2 mps 607 mmHg 19%
    23:00 +28°C° 0 mm 2 mps 607 mmHg 22%

    23 July, Monday

    Time Temperature Precipitation Wind Pressure Humidity
    00:00 +28°C° 0 mm 2 mps 607 mmHg 23%
    01:00 +27°C° 0 mm 1 mps 606 mmHg 25%
    02:00 +26°C° 0 mm 1 mps 606 mmHg 27%
    03:00 +25°C° 0 mm 1 mps 605 mmHg 28%
    04:00 +24°C° 0 mm 1 mps 605 mmHg 29%
    05:00 +24°C° 0 mm 1 mps 605 mmHg 30%
    06:00 +25°C° 0 mm 1 mps 606 mmHg 27%
    07:00 +27°C° 0 mm 1 mps 607 mmHg 24%
    08:00 +28°C° 0 mm 1 mps 607 mmHg 21%
    09:00 +30°C° 0 mm 1 mps 608 mmHg 19%
    10:00 +31°C° 0 mm 1 mps 608 mmHg 16%
    11:00 +33°C° 0 mm 1 mps 608 mmHg 14%
    12:00 +35°C° 0 mm 2 mps 608 mmHg 13%
    13:00 +36°C° 0 mm 2 mps 608 mmHg 12%
    14:00 +37°C° 0 mm 2 mps 608 mmHg 11%
    15:00 +37°C° 0 mm 2 mps 608 mmHg 11%
    16:00 +37°C° 0 mm 3 mps 608 mmHg 11%
    17:00 +37°C° 0 mm 3 mps 608 mmHg 12%
    18:00 +35°C° 0 mm 3 mps 607 mmHg 17%
    19:00 +33°C° 0 mm 3 mps 607 mmHg 22%
    20:00 +31°C° 0 mm 3 mps 607 mmHg 26%
    21:00 +29°C° 0 mm 2 mps 607 mmHg 33%
    22:00 +28°C° 0 mm 2 mps 607 mmHg 39%
    23:00 +27°C° 0 mm 1 mps 607 mmHg 45%

    24 July, Tuesday

    Time Temperature Precipitation Wind Pressure Humidity
    00:00 +27°C° 0 mm 1 mps 607 mmHg 49%
    01:00 +26°C° 0 mm 1 mps 606 mmHg 53%
    02:00 +25°C° 0 mm 1 mps 606 mmHg 57%
    03:00 +25°C° 0 mm 1 mps 606 mmHg 57%
    04:00 +24°C° 0 mm 1 mps 606 mmHg 58%
    05:00 +24°C° 0 mm 1 mps 606 mmHg 58%
    06:00 +25°C° 0 mm 1 mps 606 mmHg 51%
    07:00 +26°C° 0 mm 1 mps 607 mmHg 44%
    08:00 +28°C° 0 mm 1 mps 608 mmHg 37%
    09:00 +29°C° 0 mm 1 mps 608 mmHg 31%
    10:00 +31°C° 0 mm 1 mps 608 mmHg 26%
    11:00 +32°C° 0 mm 2 mps 609 mmHg 20%
    12:00 +34°C° 0 mm 2 mps 609 mmHg 18%
    13:00 +35°C° 0 mm 2 mps 609 mmHg 16%
    14:00 +36°C° 0 mm 3 mps 609 mmHg 14%
    15:00 +36°C° 0 mm 3 mps 609 mmHg 14%
    16:00 +36°C° 0 mm 4 mps 609 mmHg 14%
    17:00 +37°C° 0 mm 4 mps 608 mmHg 14%
    18:00 +35°C° 0 mm 4 mps 608 mmHg 18%
    19:00 +33°C° 0 mm 3 mps 608 mmHg 21%
    20:00 +31°C° 0 mm 3 mps 608 mmHg 25%
    21:00 +29°C° 0 mm 3 mps 608 mmHg 30%
    22:00 +28°C° 0 mm 2 mps 608 mmHg 35%
    23:00 +27°C° 0 mm 2 mps 608 mmHg 40%
    Show more